This is the latest recevied weather packets stored in our database for station/object AI5KP-13. If no packets are shown the sender has not sent any weather packets the latest 1 day(s).
| Time | Temp. | Humidity | Pressure | Rain* | Wind** | Luminosity | Snow |
|---|---|---|---|---|---|---|---|
| 1777991615 | 20° C | 85% | 1004.6 hPa | 0 mm | 4.47 m/s, 132° | 228 W/m² | - |
| 1777991311 | 19.44° C | 86% | 1004.6 hPa | 0 mm | 1.79 m/s, 113° | 202 W/m² | - |
| 1777991009 | 19.44° C | 86% | 1004.7 hPa | 0 mm | 1.79 m/s, 159° | 178 W/m² | - |
| 1777990706 | 19.44° C | 86% | 1004.7 hPa | 0 mm | 0.89 m/s, 147° | 176 W/m² | - |
| 1777990403 | 19.44° C | 87% | 1004.9 hPa | 0 mm | 1.34 m/s, 182° | 167 W/m² | - |
| 1777990100 | 18.89° C | 87% | 1004.7 hPa | 0 mm | 2.68 m/s, 157° | 146 W/m² | - |
| 1777989796 | 18.89° C | 88% | 1004.7 hPa | 0 mm | 0.89 m/s, 145° | 127 W/m² | - |
| 1777989494 | 18.89° C | 87% | 1004.9 hPa | 0 mm | 3.13 m/s, 142° | 114 W/m² | - |
| 1777989189 | 18.89° C | 88% | 1005 hPa | 0 mm | 1.34 m/s, 158° | 97 W/m² | - |
| 1777988886 | 18.89° C | 88% | 1005 hPa | 0 mm | 0.89 m/s, 171° | 81 W/m² | - |
| 1777988583 | 18.89° C | 88% | 1005 hPa | 0 mm | 2.24 m/s, 128° | 103 W/m² | - |
| 1777988279 | 18.33° C | 89% | 1004.7 hPa | 0 mm | 1.34 m/s, 141° | 100 W/m² | - |
| 1777987976 | 18.33° C | 89% | 1004.9 hPa | 0 mm | 0 m/s | 101 W/m² | - |
| 1777987672 | 18.33° C | 89% | 1004.9 hPa | 0 mm | 0.45 m/s, 166° | 83 W/m² | - |
| 1777987369 | 18.33° C | 89% | 1004.8 hPa | 0 mm | 0 m/s | 55 W/m² | - |
| 1777987067 | 17.78° C | 90% | 1005 hPa | 0 mm | 1.34 m/s, 140° | 55 W/m² | - |
| 1777986764 | 17.78° C | 90% | 1004.8 hPa | 0 mm | 1.79 m/s, 201° | 58 W/m² | - |
| 1777986461 | 17.78° C | 91% | 1004.9 hPa | 0 mm | 0.45 m/s, 166° | 55 W/m² | - |
| 1777986160 | 17.78° C | 91% | 1004.9 hPa | 0 mm | 0.45 m/s, 166° | 55 W/m² | - |
| 1777985856 | 17.78° C | 91% | 1004.9 hPa | 0 mm | 0 m/s | 48 W/m² | - |
| 1777985554 | 17.22° C | 91% | 1004.6 hPa | 0 mm | 0.89 m/s, 139° | 50 W/m² | - |
| 1777985250 | 17.22° C | 91% | 1004.9 hPa | 0 mm | 0.89 m/s, 144° | 53 W/m² | - |
| 1777984947 | 17.22° C | 92% | 1004.9 hPa | 0 mm | 0 m/s | 46 W/m² | - |
| 1777984642 | 17.22° C | 92% | 1005.1 hPa | 0 mm | 0.45 m/s, 166° | 53 W/m² | - |
| 1777984340 | 16.67° C | 92% | 1004.9 hPa | 0 mm | 0.89 m/s, 173° | 53 W/m² | - |
* Rain latest hour (hover to see other rain measurements)
** Current wind speed in m/s (hover to see current wind gust speed)